Stations météo

Publicité
Colmar, France (7197): Température de l'air & dewpoint: 17.01.2017 05:00:00 - 23.01.2017 05:00:00 (CET)Colmar, France (7197): Température de l'air 5cm: 17.01.2017 05:00:00 - 23.01.2017 05:00:00 (CET)Colmar, France (7197): Température de l'air -20cm & Température de l'air -100cm: 17.01.2017 05:00:00 - 23.01.2017 05:00:00 (CET)Colmar, France (7197): Vitesse du vent & gusts: 17.01.2017 05:00:00 - 23.01.2017 05:00:00 (CET)Colmar, France (7197): Direction du vent: 17.01.2017 05:00:00 - 23.01.2017 05:00:00 (CET)Colmar, France (7197): reduced air pressure: 17.01.2017 05:00:00 - 23.01.2017 05:00:00 (CET)Colmar, France (7197): visibility: 17.01.2017 05:00:00 - 23.01.2017 05:00:00 (CET)Colmar, France (7197): Ensoleillement: 17.01.2017 05:00:00 - 23.01.2017 05:00:00 (CET)Colmar, France (7197): Quantités de précipitations: 17.01.2017 05:00:00 - 23.01.2017 05:00:00 (CET)
Date & Time tt [°C] td [°C] tt 5cm [°C] tt -20cm [°C] tt -100cm [°C] ff [km/h] ff [knt] fx [km/h] fx [knt] dd ppp [hPa] vv [km] sd [min] rr [mm]
23.01.2017 05:00:00 -6,9 -7,7 -6,8 -1,8 3,6 0 0 6 4 N 1027,4 0,4 0 0,0
23.01.2017 04:00:00 -6,9 -7,7 - - - 0 0 4 2 N 1027,4 0,4 - -
23.01.2017 03:00:00 -6,9 -7,7 -6,9 -1,8 3,6 2 1 4 2 W 1027,5 0,3 0 0,0
23.01.2017 02:00:00 -6,9 -7,6 -6,7 -1,7 3,6 0 0 4 2 N 1027,7 0,2 0 0,0
23.01.2017 01:00:00 -6,8 -7,6 -6,7 -1,7 3,6 0 0 5 3 N 1027,8 0,2 0 0,0
23.01.2017 00:00:00 -6,8 -7,5 - - - 2 1 8 4 NW 1028,2 0,2 - 0,0
22.01.2017 23:00:00 -6,3 -7,0 -6,3 -1,6 3,6 2 1 7 4 N 1027,7 0,3 0 0,0
22.01.2017 22:00:00 -6,2 -6,9 -6,2 -1,6 3,7 2 1 5 3 NNW 1027,5 0,5 0 0,0
22.01.2017 21:00:00 -6,0 -6,7 -6,0 -1,6 3,6 0 0 7 4 N 1027,5 0,6 0 0,0
22.01.2017 20:00:00 -5,9 -6,6 -6,0 -1,5 3,7 3 1 8 5 NNE 1027,2 0,7 0 0,0
22.01.2017 19:00:00 -6,1 -6,8 - - - 5 3 11 6 NNE 1027,2 0,5 - -
22.01.2017 18:00:00 -6,1 -6,8 -7,0 -1,4 3,7 5 3 11 6 E 1026,7 1,4 0 0,0
22.01.2017 17:00:00 -4,9 -6,1 - - - 5 3 9 5 ENE 1026,1 2,5 - 0,0
22.01.2017 16:00:00 -3,4 -5,6 - - - 5 3 9 5 ENE 1026,0 3,3 - -
22.01.2017 15:00:00 -3,3 -5,8 - - - 4 2 9 5 ENE 1026,0 3,7 - 0,0
22.01.2017 14:00:00 -2,8 -5,4 0,3 -2,4 3,7 5 3 9 5 ENE 1026,0 3,8 46 0,0
22.01.2017 13:00:00 -3,4 -6,2 - - - 4 2 9 5 NNE 1026,7 4,1 - -
22.01.2017 12:00:00 -4,2 -5,9 - - - 2 1 5 3 W 1027,6 3,3 - 0,0
22.01.2017 11:00:00 -6,0 -7,1 - - - 0 0 4 2 N 1028,3 2,4 - 0,0
22.01.2017 10:00:00 -8,6 -9,5 -12,6 -3,4 3,7 2 1 3 2 S 1028,9 3,3 - 0,0
22.01.2017 09:00:00 -12,5 -13,9 - - - 0 0 4 2 N 1029,0 4,7 - 0,0
22.01.2017 08:00:00 -13,4 -15,2 -15,1 -3,1 3,7 2 1 4 2 E 1028,8 4,6 - 0,0
22.01.2017 07:00:00 -12,2 -13,9 -15,3 -3,0 3,8 0 0 5 3 N 1028,3 4,7 - 0,0
22.01.2017 06:00:00 -12,4 -13,8 -15,4 -2,9 3,8 3 2 7 4 SSW 1028,7 3,7 0 0,0
22.01.2017 05:00:00 -12,3 -14,0 -15,0 -2,7 3,8 4 2 6 4 SSW 1029,1 3,9 0 0,0
22.01.2017 04:00:00 -11,7 -13,3 -14,7 -2,5 3,8 4 2 5 3 S 1029,3 4,0 0 0,0
22.01.2017 03:00:00 -11,3 -12,8 - - - 4 2 8 4 SSW 1029,6 3,4 - 0,0
22.01.2017 02:00:00 -10,3 -11,9 -13,5 -2,1 3,8 3 2 7 4 S 1029,8 3,6 0 0,0
22.01.2017 01:00:00 -9,1 -10,6 -13,5 -1,8 3,8 6 3 9 5 S 1030,1 3,4 0 0,0
22.01.2017 00:00:00 -10,3 -11,6 - - - 2 1 5 3 SSW 1030,4 3,5 - 0,0
21.01.2017 23:00:00 -10,2 -11,8 - - - 4 2 5 3 SSW 1030,6 3,1 - 0,0
21.01.2017 22:00:00 -9,2 -10,5 -12,5 -1,2 3,8 3 1 4 2 SSE 1030,5 3,0 0 0,0
21.01.2017 21:00:00 -8,2 -9,4 -12,0 -1,0 3,8 0 0 3 2 N 1030,2 2,1 0 0,0
21.01.2017 20:00:00 -7,3 -8,8 -11,1 -0,8 3,8 3 1 5 3 NNE 1030,1 3,5 0 0,0
21.01.2017 19:00:00 -6,6 -9,0 - - - 4 2 4 2 N 1029,6 5 - -
21.01.2017 18:00:00 -4,8 -7,9 -8,7 -0,8 3,8 3 2 5 3 ENE 1029,4 6 0 0,0
21.01.2017 17:00:00 -1,1 -6,1 -1,9 -1,0 3,8 3 2 8 4 ENE 1028,8 7 46 0,0
21.01.2017 16:00:00 0,4 -5,4 2,9 -1,2 3,8 5 3 9 5 N 1028,7 8 60 0,0
21.01.2017 15:00:00 0,6 -5,6 4,8 -1,4 3,8 4 2 9 5 N 1028,8 8 60 0,0
21.01.2017 14:00:00 0,3 -5,7 3,9 -1,8 3,8 4 2 10 5 NNE 1029,4 7 60 0,0
21.01.2017 13:00:00 -0,8 -6,2 3,3 -2,1 3,9 4 2 11 6 SE 1030,5 6 60 0,0
21.01.2017 12:00:00 -2,2 -6,2 0,2 -2,5 3,9 6 3 12 6 ESE 1031,2 6 60 0,0
21.01.2017 11:00:00 -3,6 -6,6 -4,7 -2,8 3,8 5 3 9 5 SSW 1031,7 5 60 0,0
21.01.2017 10:00:00 -6,2 -8,3 -11,4 -2,8 3,9 2 1 4 2 S 1031,9 4,3 60 0,0
21.01.2017 09:00:00 -11,8 -13,1 -14,7 -2,7 3,9 0 0 4 2 N 1032,4 5 23 0,0
21.01.2017 08:00:00 -13,0 -14,7 - - - 2 1 4 2 SSE 1032,3 4,3 - 0,0
21.01.2017 07:00:00 -12,6 -14,3 -14,5 -2,5 3,9 2 1 5 3 S 1032,3 4,4 0 0,0
21.01.2017 06:00:00 -12,2 -13,8 -14,5 -2,4 3,9 4 2 6 3 S 1032,2 4,0 0 0,0
21.01.2017 05:00:00 -10,2 -12,0 -13,9 -2,2 3,9 4 2 9 5 S 1032,0 3,5 0 0,0
21.01.2017 04:00:00 -10,1 -11,3 - - - 5 3 8 4 SSW 1032,3 3,6 - -
21.01.2017 03:00:00 -10,2 -12,0 -13,9 -1,9 3,9 3 2 11 6 S 1032,6 3,3 0 0,0
21.01.2017 02:00:00 -10,5 -11,3 - - - 8 4 9 5 SSW 1032,8 3,1 - 0,0
21.01.2017 01:00:00 -10,4 -12,1 -13,1 -1,6 3,9 3 2 8 5 S 1033,0 3,2 0 0,0
21.01.2017 00:00:00 -8,1 -9,3 -13,2 -1,4 3,9 5 3 8 5 SW 1033,1 3,6 0 0,0
20.01.2017 23:00:00 -7,7 -9,2 - - - 5 3 9 5 SW 1033,2 3,7 - 0,0
20.01.2017 22:00:00 -7,6 -9,2 -12,4 -1,0 4,0 6 3 8 5 SSW 1033,2 4,1 0 0,0
20.01.2017 21:00:00 -8,4 -10,0 -12,1 -0,8 4,0 5 3 9 5 SSW 1033,5 5 0 0,0
20.01.2017 20:00:00 -7,5 -9,1 -12,0 -0,6 4,0 5 3 7 4 SSW 1033,2 7 0 0,0
20.01.2017 19:00:00 -7,7 -10,1 -11,1 -0,5 4,0 0 0 5 3 N 1033,3 8 0 0,0
20.01.2017 18:00:00 -5,6 -9,0 -10,0 -0,5 4,0 0 0 2 1 N 1032,9 10 0 0,0
20.01.2017 17:00:00 -2,5 -7,4 -3,8 -0,6 4,0 3 1 6 3 NNE 1032,4 12 45 0,0
20.01.2017 16:00:00 -1,4 -7,5 1,5 -0,7 4,0 4 2 9 5 NNE 1032,1 13 60 0,0
20.01.2017 15:00:00 -1,2 -7,6 2,4 -0,9 4,0 6 3 10 5 N 1032,1 13 60 0,0
20.01.2017 14:00:00 -1,6 -7,7 2,8 -1,1 4,0 4 2 9 5 N 1032,4 12 60 0,0
20.01.2017 13:00:00 -2,3 -7,4 - - - 4 2 9 5 NNE 1033,1 10 - -
20.01.2017 12:00:00 -3,2 -7,5 -0,8 -1,7 4,0 3 1 6 3 W 1033,9 10 60 0,0
20.01.2017 11:00:00 -4,8 -7,4 -3,7 -1,9 4,0 3 1 5 3 WNW 1034,5 8 60 0,0
20.01.2017 10:00:00 -7,1 -8,8 -11,1 -1,9 4,0 0 0 2 1 N 1034,7 6 60 0,0
20.01.2017 09:00:00 -11,8 -13,2 - - - 0 0 2 1 N 1034,9 6 - 0,0
20.01.2017 08:00:00 -12,7 -14,6 -14,9 -1,7 4,0 0 0 2 1 N 1034,9 8 0 0,0
20.01.2017 07:00:00 -11,6 -13,5 -14,6 -1,5 4,1 0 0 7 4 N 1034,7 7 0 0,0
20.01.2017 06:00:00 -12,6 -14,2 -14,3 -1,4 4,1 4 2 6 3 SW 1034,7 6 0 0,0
20.01.2017 05:00:00 -12,6 -14,3 -14,1 -1,3 4,1 4 2 6 3 S 1034,6 7 0 0,0
20.01.2017 04:00:00 -11,7 -13,1 -13,8 -1,1 4,1 0 0 6 4 N 1034,6 6 0 0,0
20.01.2017 03:00:00 -11,5 -13,1 - - - 4 2 5 3 ENE 1034,6 7 - 0,0
20.01.2017 02:00:00 -11,9 -13,8 -13,5 -0,9 4,1 0 0 5 3 N 1034,5 8 0 0,0
20.01.2017 01:00:00 -10,5 -11,7 -13,4 -0,7 4,1 4 2 5 3 NNE 1034,4 7 0 0,0
20.01.2017 00:00:00 -10,7 -12,0 -12,8 -0,6 4,1 0 0 3 2 N 1035,0 6 0 0,0
19.01.2017 23:00:00 -10,1 -12,0 -12,6 -0,5 4,1 0 0 8 4 N 1035,0 6 0 0,0
19.01.2017 22:00:00 -9,1 -10,3 - - - 5 3 8 4 N 1035,0 7 - -
19.01.2017 21:00:00 -9,0 -10,8 -12,1 -0,3 4,1 4 2 6 3 N 1035,0 7 0 0,0
19.01.2017 20:00:00 -8,1 -9,5 -11,8 -0,2 4,1 0 0 4 2 N 1034,8 6 0 0,0
19.01.2017 19:00:00 -7,0 -8,9 - - - 4 2 5 3 NW 1034,6 6 - -
19.01.2017 18:00:00 -4,8 -7,7 -9,2 -0,1 4,1 3 1 7 4 N 1034,1 9 0 0,0
19.01.2017 17:00:00 -2,7 -7,1 -3,4 -0,1 4,1 5 3 16 9 N 1033,8 11 43 0,0
19.01.2017 16:00:00 -1,8 -6,9 - - - 9 5 18 10 NNE 1033,6 10 - -
19.01.2017 15:00:00 -1,8 -6,9 0,8 -0,2 4,2 11 6 22 12 NNE 1033,7 10 60 0,0
19.01.2017 14:00:00 -2,2 -7,3 0,6 -0,3 4,1 11 6 18 10 NNE 1034,0 11 58 0,0
19.01.2017 13:00:00 -3,0 -7,2 0,7 -0,3 4,2 12 6 22 12 N 1034,5 10 60 0,0
19.01.2017 12:00:00 -3,6 -7,2 -2,2 -0,4 4,2 9 5 18 10 NNE 1034,8 11 60 0,0
19.01.2017 11:00:00 -4,9 -7,8 -4,1 -0,4 4,2 11 6 20 11 N 1035,6 9 57 0,0
19.01.2017 10:00:00 -6,2 -8,3 - - - 5 3 9 5 NNE 1035,7 8 - -
19.01.2017 09:00:00 -8,9 -10,0 - - - 2 1 8 4 NNE 1035,5 7 - 0,0
19.01.2017 08:00:00 -8,7 -10,3 -11,6 -0,2 4,2 3 2 11 6 N 1034,9 7 0 0,0
19.01.2017 07:00:00 -7,8 -9,4 - - - 5 3 13 7 NNE 1034,5 8 - -
19.01.2017 06:00:00 -7,6 -9,4 - - - 8 4 13 7 NNE 1034,3 8 - 0,0
19.01.2017 05:00:00 -6,9 -9,0 - - - 8 4 18 10 N 1034,4 9 - 0,0
19.01.2017 04:00:00 -6,8 -8,9 - - - 8 4 15 8 N 1034,2 8 - -
19.01.2017 03:00:00 -6,3 -8,6 -6,9 0,1 4,2 10 5 23 12 N 1034,1 9 0 0,0
19.01.2017 02:00:00 -5,8 -8,4 - - - 13 7 22 12 N 1033,5 9 - 0,0
19.01.2017 01:00:00 -5,6 -8,3 - - - 13 7 26 14 N 1033,4 10 - -
19.01.2017 00:00:00 -5,1 -8,2 - - - 16 9 28 15 N 1033,4 11 - 0,0
18.01.2017 23:00:00 -4,7 -8,1 - - - 16 9 26 14 N 1033,6 13 - 0,0
18.01.2017 22:00:00 -4,6 -8,2 -5,3 0,2 4,2 16 8 27 14 N 1033,6 16 0 0,0
18.01.2017 21:00:00 -4,1 -8,0 - - - 15 8 28 15 N 1033,7 18 - 0,0
18.01.2017 20:00:00 -3,8 -8,3 -4,4 0,2 4,2 14 8 26 14 N 1033,8 20 0 0,0
18.01.2017 19:00:00 -2,6 -8,7 -3,3 0,2 4,3 14 8 35 19 N 1033,6 20 0 0,0
18.01.2017 18:00:00 -1,9 -8,4 -2,6 0,2 4,3 16 9 40 21 NNE 1033,3 20 0 0,0
18.01.2017 17:00:00 -1,2 -8,4 -1,5 0,2 4,3 21 11 40 22 NNE 1032,8 20 42 0,0
18.01.2017 16:00:00 -0,3 -8,5 - - - 26 14 50 27 NNE 1032,6 20 - -
18.01.2017 15:00:00 -0,1 -8,5 2,3 0,2 4,3 21 12 43 23 NNE 1032,4 20 60 0,0
18.01.2017 14:00:00 -0,5 -8,7 1,9 0,2 4,3 21 11 44 24 NNE 1032,5 20 60 0,0
18.01.2017 13:00:00 -0,8 -8,7 1,8 0,2 4,3 22 12 44 24 NNE 1033,0 20 60 0,0
18.01.2017 12:00:00 -1,0 -8,9 - - - 22 12 41 22 NNE 1033,3 20 - 0,0
18.01.2017 11:00:00 -2,0 -7,9 -1,7 0,2 4,3 24 13 47 25 N 1033,6 20 60 0,0
18.01.2017 10:00:00 -3,1 -8,0 -4,3 0,2 4,3 26 14 42 23 N 1033,6 20 60 0,0
18.01.2017 09:00:00 -4,4 -8,3 - - - 22 12 37 20 N 1033,4 20 - 0,0
18.01.2017 08:00:00 -5,1 -8,5 -5,6 0,3 4,3 18 10 38 20 N 1033,0 20 0 0,0
18.01.2017 07:00:00 -4,8 -8,6 -5,4 0,3 4,3 22 12 40 21 N 1032,7 20 0 0,0
18.01.2017 06:00:00 - - - - - - - - - - - - - -
18.01.2017 05:00:00 -4,7 -8,3 - - - 22 12 42 23 N 1032,6 20 - 0,0
18.01.2017 04:00:00 -4,6 -8,0 - - - 24 13 39 21 N 1032,6 20 - -
18.01.2017 03:00:00 -4,5 -7,9 - - - 21 11 31 17 N 1032,8 20 - 0,0
18.01.2017 02:00:00 -4,4 -7,7 - - - 16 9 29 16 N 1033,3 20 - 0,0
18.01.2017 01:00:00 -4,2 -7,6 -4,7 0,4 4,4 18 10 40 22 N 1033,1 20 0 0,0
18.01.2017 00:00:00 -3,5 -8,0 - - - 16 9 41 22 N 1032,9 20 - 0,0
17.01.2017 23:00:00 -3,3 -7,8 -4,0 0,5 4,4 16 9 31 17 N 1032,7 20 0 0,0
17.01.2017 22:00:00 -3,4 -7,5 - - - 13 7 22 12 N 1032,8 20 - -
17.01.2017 21:00:00 -3,0 -7,3 -3,6 0,5 4,3 15 8 32 17 N 1032,7 20 0 0,0
17.01.2017 20:00:00 -2,6 -7,5 -3,2 0,5 4,4 15 8 33 18 NNE 1032,7 20 0 0,0
17.01.2017 19:00:00 -2,0 -7,9 -2,6 0,5 4,4 15 8 31 17 NNE 1032,4 20 0 0,0
17.01.2017 18:00:00 -2,1 -8,0 -2,7 0,5 4,4 15 8 37 20 NNE 1031,9 20 0 0,0
17.01.2017 17:00:00 -1,5 -8,1 -1,9 0,5 4,4 17 9 44 24 NNE 1031,6 20 35 0,0
17.01.2017 16:00:00 -1,4 -8,0 -1,4 0,5 4,4 23 12 46 25 NNE 1031,4 20 53 0,0
17.01.2017 15:00:00 -0,9 -7,9 -0,1 0,5 4,4 27 14 52 28 NE 1031,2 20 54 0,0
17.01.2017 14:00:00 -0,8 -7,8 -1,3 0,5 4,4 24 13 50 27 NNE 1031,2 20 46 0,0
17.01.2017 13:00:00 -2,0 -7,1 -1,5 0,6 4,4 19 10 40 22 NNE 1031,9 20 19 0,0
17.01.2017 12:00:00 -2,3 -7,0 -1,1 0,5 4,4 21 12 44 24 NNE 1032,2 20 53 0,0
17.01.2017 11:00:00 -2,7 -6,7 -2,8 0,6 4,4 19 11 43 23 N 1032,9 20 52 0,0
17.01.2017 10:00:00 -3,8 -6,6 -4,5 0,6 4,4 24 13 45 24 N 1032,4 20 58 0,0
17.01.2017 09:00:00 -4,5 -7,4 - - - 28 15 46 25 N 1032,0 20 - 0,0
17.01.2017 08:00:00 -5,1 -7,7 -5,4 0,6 4,4 23 12 52 28 N 1031,8 20 0 0,0
17.01.2017 07:00:00 -4,6 -6,7 -5,0 0,6 4,4 27 15 47 25 N 1031,3 19 0 0,0
17.01.2017 06:00:00 -4,6 -6,4 - - - 21 11 39 21 N 1030,6 17 - 0,0
17.01.2017 05:00:00 -4,4 -6,4 - - - 18 10 37 20 N 1030,2 19 - 0,0

tt = Température de l'air
td = dewpoint
tt 5cm = Température de l'air 5cm
tt -20cm = Température de l'air -20cm
tt -100cm = Température de l'air -100cm
ff = Vitesse du vent
fx = gusts
dd = Direction du vent
ppp = reduced air pressure
vv = visibility
sd = Ensoleillement
rr = Quantités de précipitations

stations d'obs. à proximité